This is the latest recevied weather packets stored in our database for station/object K1AWR. If no packets are shown the sender has not sent any weather packets the latest 10 day(s).
| Time | Temp. | Humidity | Pressure | Rain* | Wind** | Luminosity | Snow |
|---|---|---|---|---|---|---|---|
| 1778089461 | 16.11° C | 87% | 1008.4 hPa | 0 mm | - | 68 W/m² | - |
| 1778089157 | 16.11° C | 86% | 1008.7 hPa | 1.78 mm | - | 67 W/m² | - |
| 1778088854 | 16.11° C | 85% | 1008.4 hPa | 1.78 mm | - | 79 W/m² | - |
| 1778088551 | 16.67° C | 84% | 1008.7 hPa | 0 mm | - | 62 W/m² | - |
| 1778088248 | 16.67° C | 82% | 1009.1 hPa | 0 mm | - | 47 W/m² | - |
| 1778087945 | 16.67° C | 80% | 1008.8 hPa | 0 mm | - | 50 W/m² | - |
| 1778087643 | 17.22° C | 79% | 1009 hPa | 0 mm | - | 53 W/m² | - |
| 1778087340 | 17.78° C | 77% | 1009.2 hPa | 0 mm | - | 41 W/m² | - |
| 1778087036 | 17.78° C | 75% | 1009.2 hPa | 0 mm | - | 46 W/m² | - |
| 1778086735 | 17.78° C | 73% | 1009.3 hPa | 0 mm | - | 47 W/m² | - |
| 1778086433 | 18.33° C | 72% | 1009.2 hPa | 0 mm | - | 56 W/m² | - |
| 1778086129 | 18.89° C | 71% | 1009.1 hPa | 0 mm | - | 89 W/m² | - |
| 1778085825 | 18.89° C | 71% | 1009.2 hPa | 0 mm | - | 127 W/m² | - |
| 1778085524 | 18.89° C | 71% | 1009.2 hPa | 0 mm | - | 97 W/m² | - |
| 1778085218 | 18.89° C | 70% | 1009 hPa | 0 mm | - | 95 W/m² | - |
| 1778084913 | 18.89° C | 68% | 1008.9 hPa | 0 mm | - | 116 W/m² | - |
| 1778084612 | 19.44° C | 68% | 1008.8 hPa | 0 mm | - | 127 W/m² | - |
| 1778084309 | 19.44° C | 68% | 1008.7 hPa | 0 mm | - | 131 W/m² | - |
| 1778084006 | 20° C | 67% | 1008.8 hPa | 0 mm | - | 134 W/m² | - |
| 1778083704 | 20° C | 66% | 1009.1 hPa | 0 mm | - | 115 W/m² | - |
| 1778083400 | 19.44° C | 67% | 1009 hPa | 0 mm | - | 141 W/m² | - |
| 1778083099 | 19.44° C | 67% | 1009.2 hPa | 0 mm | - | 141 W/m² | - |
| 1778082795 | 19.44° C | 67% | 1009.2 hPa | 0 mm | - | 99 W/m² | - |
| 1778081667 | 20° C | 66% | 1009.2 hPa | 0 mm | - | 134 W/m² | - |
| 1778081365 | 20° C | 66% | 1009.4 hPa | 0 mm | - | 126 W/m² | - |
* Rain latest hour (hover to see other rain measurements)
** Current wind speed in m/s (hover to see current wind gust speed)